#timestamp,LO_Frequency,Hit,StdDev 
1509289215.2,286047007.0,P
1509289235.9,286047004.7,N
1509289255.7,286047007.6,Y
1509289275.6,286046998.2,P
1509289295.4,286047004.2,N
1509289315.3,286047004.2,N
1509289335.1,286047004.9,N
1509289336.0,286047004.9,N
1509289355.8,286047008.7,Y
1509289375.7,286047008.9,P
1509289395.5,286047009.2,P
1509289415.4,286047006.3,N
1509289435.2,286047008.4,Y
1509289455.0,286047004.1,P
1509289455.9,286047004.1,N
1509289475.8,286047005.6,P
1509289495.6,286047005.1,Y
1509289515.5,286047000.4,P
1509289535.3,286046999.7,N
1509289555.1,286047004.0,N
1509289575.9,286047004.3,N
1509289595.7,286047007.6,Y
1509289615.5,286047005.0,P
1509289635.4,286047010.0,P
1509289655.2,286047013.8,P
1509289675.1,286047013.2,Y
1509289676.0,286047013.2,P
1509289695.8,286047004.6,N
1509289715.6,286047010.2,N
1509289735.5,286047011.7,Y
1509289755.3,286047003.6,P
1509289775.2,286047006.0,N
1509289795.9,286047009.2,P
1509289815.7,286047007.8,Y
1509289835.6,286047003.9,P
1509289855.4,286047004.7,P
1509289875.2,286047004.6,P
1509289895.1,286047008.1,Y
1509289896.0,286047008.1,P
1509289915.8,286047005.4,P
1509289935.7,286047006.8,P
1509289955.5,286047010.2,Y
1509289975.3,286047005.9,P
1509289995.2,286047006.7,P
1509290015.0,286047006.5,P
1509290015.9,286047006.5,Y
1509290035.8,286046999.8,P
1509290055.6,286047007.5,N
1509290075.4,286047009.0,N
1509290095.3,286047008.8,N
1509290115.1,286047009.0,N
1509290116.0,286047009.0,N
1509290135.8,286047008.8,N
1509290155.7,286047009.4,Y
1509290175.5,286047008.1,P
1509290195.4,286047012.2,P
1509290215.2,286047013.2,P
1509290235.0,286047014.7,Y
1509290235.9,286047014.7,P
1509290255.8,286047005.5,N
1509290275.6,286047005.3,N
1509290295.4,286047003.5,N
1509290315.3,286047003.6,N
1509290335.1,286047003.8,N
1509290355.9,286047001.4,N
1509290375.7,286047006.2,N
1509290395.5,286047010.2,N
1509290415.4,286047009.8,N
1509290435.2,286047010.3,N
1509290455.0,286047012.2,Y
1509290455.9,286047012.2,P
1509290475.8,286047013.9,P
1509290495.6,286047013.6,P
1509290515.5,286047013.5,Y
1509290535.3,286047004.3,P
1509290555.1,286047003.0,N
1509290575.9,286047004.5,N
1509290595.7,286047009.9,N
1509290615.6,286047012.9,Y
1509290635.4,286047008.4,P
1509290655.2,286047010.2,P
1509290675.1,286047010.6,P
1509290676.0,286047010.6,Y
1509290695.8,286047001.8,P
1509290715.6,286047000.2,N
1509290735.5,286047001.9,N
1509290755.3,286047003.2,N
1509290775.2,286047005.9,N
1509290795.9,286047003.3,N
1509290815.7,286047004.1,N
1509290835.6,286047002.7,N
1509290855.4,286046999.8,N
1509290875.2,286046999.9,N
1509290895.1,286047000.2,N
1509290896.0,286047000.2,N
1509290915.8,286046999.7,N
1509290935.7,286046999.7,N
1509290955.5,286047000.3,N
1509290975.3,286047004.9,N
1509290995.2,286047012.0,Y
1509291015.0,286047010.2,P
1509291015.9,286047010.2,N
1509291035.8,286047011.0,N
1509291055.6,286047015.1,Y
1509291075.4,286047006.8,P
1509291095.3,286047007.2,P
1509291115.1,286047004.5,P
1509291135.8,286047007.6,Y
1509291155.7,286046998.3,P
1509291175.5,286047002.6,N
1509291195.4,286047002.4,N
1509291215.2,286047001.2,N
1509291235.0,286047002.3,N
1509291235.9,286047002.3,N
1509291255.8,286047000.9,N
1509291275.6,286047000.7,N
1509291295.4,286047002.2,N
1509291315.3,286047000.3,N
1509291335.1,286047000.6,N
1509291355.9,286047000.6,N
1509291375.7,286047002.8,N
1509291395.5,286047004.0,N
1509291415.4,286047001.4,N
1509291435.2,286047001.9,N
1509291455.1,286047004.1,N
1509291456.0,286047004.1,N
1509291475.8,286047003.1,N
1509291495.6,286047002.9,N
1509291515.5,286047005.3,Y
1509291535.3,286047001.4,P
1509291555.2,286047004.1,P
1509291575.9,286047007.5,P
1509291595.7,286047003.0,N
1509291615.6,286047003.1,N
1509291635.4,286047007.0,Y
1509291655.2,286047001.9,P
1509291675.1,286047006.0,P
1509291676.0,286047006.0,P
1509291695.8,286047006.4,Y
1509291715.7,286047001.5,P
1509291735.5,286047002.1,N
1509291755.3,286047004.4,P
1509291775.2,286047001.4,N
1509291795.0,286047001.7,N
1509291795.9,286047001.7,N
1509291815.7,286047003.8,Y
1509291835.6,286047002.4,P
1509291855.4,286046999.7,P
1509291875.3,286047002.8,N
1509291895.1,286047002.7,N
1509291896.0,286047002.7,N
1509291915.8,286047002.4,N
1509291935.7,286047000.0,N
1509291955.5,286047003.8,Y
1509291975.4,286047001.3,P
1509291995.2,286047003.0,P
1509292015.0,286047004.1,P
1509292015.9,286047004.1,Y
1509292035.8,286047000.2,P
1509292055.6,286046999.7,N
1509292075.5,286047002.7,N
1509292095.3,286046999.7,N
1509292115.1,286046999.7,N
1509292135.9,286047002.8,N
1509292155.7,286047002.3,N
1509292175.5,286047002.1,N
1509292195.4,286047001.9,N
1509292215.2,286047001.5,N
1509292235.1,286047001.4,N
1509292236.0,286047001.4,N
1509292255.8,286047004.1,Y
1509292275.6,286047002.0,P
1509292295.5,286047003.0,P
1509292315.3,286047003.1,P
1509292335.1,286047003.0,Y
1509292355.9,286047003.9,P
1509292375.7,286047004.3,P
1509292395.6,286047001.8,N
1509292415.4,286047001.3,N
1509292435.2,286047003.5,N
1509292455.1,286047002.0,N
1509292456.0,286047002.0,N
1509292475.8,286047003.7,Y
1509292495.7,286047002.8,P
1509292515.5,286046999.7,P
1509292535.3,286047004.4,P
1509292555.2,286047001.3,N
1509292575.9,286047001.8,N
1509292595.7,286047004.2,N
1509292615.6,286047004.7,Y
1509292635.4,286047004.4,P
1509292655.3,286047003.2,P
1509292675.1,286047005.2,P
1509292676.0,286047005.2,Y
1509292695.8,286047002.5,P
1509292715.7,286047001.4,N
1509292735.5,286047001.5,N
1509292755.3,286047001.7,N
1509292775.2,286047003.9,Y
1509292795.0,286046998.2,P
1509292795.9,286046998.2,N
